DECAYED

NOAA 17 DEB, 48757 (Decayed)

Orbit data source: Space-Track

NOAA 17 DEB, 48757 was space debris in SSO originally from a launch on Mon, 24 Jun 2002 UTC launched from the Air Force Western Test Range (AFWTR). Debris objects in space refer to the collection of defunct objects orbiting the Earth. Examples of debris include non-operational satellites, rocket bodies, and fragments generated from explosions, collisions, or faulty payload assembly.

Not visible in the next 10 days
Identifier
48757, 2002-032CS
Orbit
Decayed
Country
Flag of USUS
Related business
Manufacturer
Unknown
Mission
Decayed spacecraft
Bus & Motor
Unknown
Mass
Unknown
Launch date (UTC)
2002-06-24 (24 years ago)
Launch vehicle
Unknown
Launch site
Air Force Western Test Range (AFWTR)
Object type
Payload
Rocket body
Debris
Shape & HBR
Unknown shape, 0.1 m
Radar Cross Section
Medium (>0.1 m² and <1 m²)

Expand to show TLE details & history
Last TLE update: 1 year ago

TLE from 1 year ago
0 NOAA 17 DEB
1 48757U 02032CS  25155.90231784  .01290146  00000-0  17769-1 0  9994
2 48757  98.5955 146.8951 0018975 137.1091 223.1643 15.54359248220214
Epoch: 2025-06-04T21:39Z
TLE epoch observation values (Epoch: 2025-06-04T21:39:20.261Z)
Latitude
-0.00001°
Longitude
-71.51795°
Altitude
416.516 km
Speed
7.656 km/s
True Right ascension
09h 47m 34s
True Declination
0° 00' 00"
Sunlit
Object was in daylight at epoch
Visualization orbit readout
Latitude
Unknown
Longitude
Unknown
Altitude
Unknown
Speed
Unknown
Apparent Right ascension
Unknown
Apparent Declination
Unknown
Sunlit
N/A
Visualization observer readout
Local Sidereal Time
21:38:58
Azimuth
Unknown
Elevation
Unknown
Doppler factor
Unknown
Orbital elements
Apogee altitude
413.855 km
Perigee altitude
388.128 km
Semi-major axis
6,779.129 km
Eccentricity
0.0019
Inclination
98.5955°
RAAN
146.8951°
Arg. of periapsis
137.1091°
True anomaly
223.01581°
Mean anomaly
223.1643°
Eccentric anomaly
223.09003°
Mean motion
3.8885 °/min
Orbital period
92.58 mins
BSTAR
0.017769
Loading maneuver chart data...
Computing Atmospheric mass density...

Documentation

Showing up to 5 results
|